Flag for U.S.A. Weather past 2 weeks in Mobile, Alabama, U.S.A.

Now
50 °F

Clear.


Feels Like: 46 °F
Forecast: 44 / 62 °F
Wind: 9 mph from Southeast

Location: Mobile Downtown Airport

Current Time: Dec 26, 2014 at 2:04:31 AM

Latest Report: Dec 26, 2014 at 12:53 AM


Visibility: 10 mi

Pressure: 30.22 "Hg

Humidity: 77%

Dew point: 43 °F

Location of MobileLocation

Historic Weather in Mobile — Graph

°F

Mobile temperature yesterday

Maximum temperature yesterday: 56 °F (at 2:53 PM)
Minimum temperature yesterday: 35 °F (at 6:53 AM)
Average temperature yesterday: 45 °F

Past Weeks' High & Low Weather Summary

 TemperatureHumidityPressure
High72 °F (Dec 23, 8:53 PM)100% (Dec 14, 10:53 PM)30.40 "Hg (Dec 14, 10:53 PM)
Low35 °F (Dec 25, 6:53 AM)31% (Dec 16, 1:53 PM)29.60 "Hg (Dec 23, 2:53 PM)
Average54 °F78%30.11 "Hg
* Reported Dec 11 12:53 AM — Dec 26 12:53 AM, Mobile, Weather by CustomWeather, © 2014

Note: Actual official high and low records may vary slightly from our data, if they occured in-between our weather recording intervals... More about our weather records

Advertising

Mobile weather history for previous 24 hours

 ConditionsComfort  
Time TempWeatherWind HumidityBarometerVisibility
12:53 AM
Dec 26
50 °FClear.9 mph77%30.22 "Hg10 mi
11:53 PM
Dec 25
40 °FClear.No wind100%30.23 "Hg8 mi
10:53 PM40 °FClear.No wind93%30.24 "Hg7 mi
9:53 PM40 °FClear.No wind100%30.26 "Hg10 mi
8:53 PM39 °FClear.No wind96%30.26 "Hg9 mi
7:53 PM41 °FClear.5 mph89%30.26 "Hg10 mi
6:53 PM44 °FClear.5 mph89%30.26 "Hg10 mi
5:53 PM45 °FClear.5 mph86%30.26 "Hg10 mi
4:53 PM51 °FSunny.3 mph69%30.25 "Hg10 mi
3:53 PM54 °FSunny.6 mph55%30.24 "Hg10 mi
2:53 PM56 °FSunny.6 mph49%30.24 "Hg10 mi
1:53 PM55 °FSunny.6 mph53%30.24 "Hg10 mi
12:53 PM53 °FSunny.7 mph55%30.24 "Hg10 mi
11:53 AM51 °FSunny.7 mph56%30.26 "Hg10 mi
10:53 AM50 °FSunny.7 mph63%30.28 "Hg10 mi
9:53 AM49 °FSunny.6 mph66%30.31 "Hg10 mi
8:53 AM47 °FSunny.6 mph71%30.31 "Hg10 mi
7:53 AM42 °FPassing clouds.No wind85%30.27 "Hg10 mi
6:53 AM35 °FSunny.No wind96%30.24 "Hg10 mi
5:53 AM36 °FClear.3 mph92%30.22 "Hg10 mi
4:53 AM40 °FClear.5 mph86%30.19 "Hg10 mi
3:53 AM41 °FClear.6 mph82%30.18 "Hg10 mi
2:53 AM41 °FClear.7 mph82%30.17 "Hg10 mi
Weather by CustomWeather, © 2014

See weather overviewHow to use our weather pages